Lid_Strength_Index
8 12 14 13 11 13 15 16 16 14 11 12 14 13 12 11 11 12 12 11 10 10 9 7 4 4 4 4 4 4 3 2 2 3 2 2 2 2 2 1 0 -0 0 0
10 14 11 10 10 10 13 17 16 13 11 12 13 14 12 12 12 11 11 12 11 10 10 8 6 6 6 5 5 6 4 3 2 2 2 2 2 2 2 2 2 0 0 0
12 12 8 9 11 12 12 15 15 14 12 12 13 16 14 12 11 11 10 10 10 9 9 9 8 8 7 6 5 5 4 3 3 2 2 2 2 3 3 3 2 2 1 1
11 9 11 11 11 12 15 12 12 12 14 19 14 21 16 14 14 12 11 11 11 10 9 8 8 8 8 7 5 5 4 4 2 1 2 2 2 3 3 2 2 2 1 1
13 11 11 12 11 9 13 11 12 13 15 17 17 20 19 15 16 14 13 11 10 9 9 9 8 8 7 7 6 6 5 5 4 1 1 2 3 3 3 4 3 2 2 1
12 9 9 10 9 9 10 12 12 13 15 21 17 18 19 16 14 13 13 12 11 10 9 8 8 7 8 6 5 5 5 5 4 4 3 3 3 3 4 4 4 4 2 1
12 12 10 9 11 10 11 14 21 22 24 23 16 18 17 14 13 13 12 12 11 10 9 8 9 7 6 6 5 5 4 5 5 5 5 4 4 4 4 4 4 4 3 3
16 17 11 10 10 12 12 13 18 24 22 20 16 20 18 13 11 12 11 11 11 10 10 9 9 7 7 6 6 5 5 5 6 5 4 3 3 4 4 3 3 3 3 3
15 15 10 9 9 9 13 15 12 16 20 22 19 17 13 12 13 12 12 12 12 11 10 10 9 8 7 7 6 6 7 7 7 7 7 7 7 7 7 6 6 6 7 6
12 16 10 10 8 9 11 10 16 15 22 25 21 20 18 15 13 12 12 11 11 11 11 10 8 8 7 7 8 8 8 8 8 9 8 8 8 8 8 8 8 8 8 8
10 13 13 11 13 13 13 14 13 13 16 21 23 21 15 13 13 13 13 12 11 11 10 9 9 9 9 9 9 10 9 10 9 9 9 9 9 9 9 9 9 9 9 9
10 13 16 14 10 9 10 12 13 17 19 16 16 18 13 13 12 12 12 11 11 10 10 10 10 10 10 11 11 11 11 11 11 11 11 12 12 11 11 11 11 10 10 9
9 14 17 16 13 10 12 12 11 12 13 16 19 19 10 10 11 10 11 10 10 10 10 9 10 10 10 10 11 12 12 12 11 11 12 12 13 13 12 12 11 11 10 10
8 13 15 17 15 13 14 12 12 13 17 16 15 14 11 11 11 10 9 9 9 9 9 9 10 10 10 10 12 12 13 12 12 12 13 13 14 13 13 13 12 12 11 11
10 15 13 13 13 13 13 13 13 14 14 16 14 15 14 11 11 10 8 8 8 10 10 9 9 9 11 12 12 13 13 13 13 14 15 15 15 14 14 14 14 13 12 12
9 14 15 17 13 13 15 14 13 14 15 14 14 15 12 10 9 9 10 9 12 14 13 11 12 14 14 14 14 14 15 15 15 16 17 16 16 16 16 15 15 14 14 13
11 13 16 18 14 14 17 15 13 14 13 14 18 14 12 13 10 16 15 15 16 16 17 17 19 18 18 16 15 16 16 16 17 17 18 18 17 17 17 16 16 16 16 15
14 15 17 22 20 22 15 13 12 13 12 12 12 12 15 17 18 19 19 19 19 19 20 20 19 20 19 18 18 18 18 18 18 18 18 18 18 18 17 17 16 16 16 17
9 14 19 21 25 19 15 14 14 14 14 13 13 14 15 15 16 20 19 19 19 19 20 20 20 20 20 19 18 19 19 19 19 20 20 19 18 19 18 18 18 18 17 17
10 10 15 23 23 24 16 15 13 11 17 16 16 16 18 16 16 20 20 19 19 19 19 19 19 20 20 19 18 20 21 21 21 21 20 19 19 19 19 19 18 17 17 16
18 15 15 19 23 20 13 14 13 18 16 17 17 17 18 18 20 20 19 21 20 20 19 19 20 21 20 19 19 21 22 22 22 21 20 20 19 18 18 18 18 18 17 17
16 17 20 20 17 19 15 14 13 15 16 16 18 18 18 19 19 20 21 21 21 22 21 20 21 22 21 21 21 22 23 22 22 21 21 21 20 19 19 20 19 19 19 19
17 14 17 15 15 18 17 17 16 15 16 17 17 18 18 20 22 21 22 22 23 23 23 22 23 23 23 23 23 23 23 22 23 23 23 22 22 21 21 22 21 20 20 19
14 16 15 16 19 20 18 17 16 16 17 17 17 17 18 20 21 22 23 24 24 24 25 24 25 25 25 24 23 23 23 23 24 24 24 23 23 23 22 22 21 22 22 22
15 15 16 18 21 21 20 19 18 18 18 20 20 20 19 21 22 22 23 24 24 24 24 24 25 25 25 24 25 24 25 25 26 25 25 24 24 24 24 23 23 22 21 21
17 15 15 14 18 19 22 20 19 20 20 21 22 22 22 22 22 23 24 24 25 25 25 25 25 26 25 25 26 26 26 26 27 27 26 26 26 25 24 25 25 22 21 20